Location: Morrison Observatory
(41.7012°N, 86.2315°W)
Time: 00:55:44
(UTC-04:00)

Daily predictions for brighter satellites

Satellite Brightness Start Highest point End
(mag) Time Altitude Azimuth Time Altitude Azimuth Time Altitude Azimuth
ASTEX 1 3.2 00:07:06 10° N 00:12:03 80° E 00:12:25 74° SSE
Spot 4 4.0 00:13:29 58° SW 00:14:05 64° WSW 00:18:55 10° NNW
Cosmos 614 Rocket 4.1 00:10:49 10° NNW 00:15:49 59° WSW 00:16:24 55° SW
Timation 1 Rocket 4.4 00:15:58 54° ESE 00:16:15 55° ESE 00:22:07 10° NE
Cosmos 1140 Rocket 4.4 00:11:56 10° NW 00:16:38 37° WSW 00:17:37 34° SW
Terra 2.5 00:16:52 40° WSW 00:17:35 43° W 00:22:07 10° NNW
Okean 1-7 Rocket 4.1 00:13:41 10° N 00:17:45 51° ENE 00:17:45 51° ENE
Okean 1 Rocket 3.4 00:24:31 59° NE 00:24:31 59° NE 00:28:22 10° NNE
BREEZE-M DEB (TANK) 4.0 00:20:44 10° WNW 00:26:27 31° WSW 00:26:27 31° WSW
Cosmos 1300 Rocket 3.7 00:29:21 71° NNE 00:29:21 71° NNE 00:33:20 10° N
Cosmos 2278 Rocket 3.9 00:27:03 10° WSW 00:32:01 30° NW 00:37:01 10° N
Cosmos 1025 Rocket 4.2 00:28:40 10° N 00:32:03 34° NE 00:32:03 34° NE
USA 234 3.9 00:26:54 10° NE 00:33:15 56° NNW 00:39:35 10° WSW
Meteor 1-11 Rocket 4.0 00:33:06 55° ESE 00:33:20 55° E 00:39:00 10° NNE
Cosmos 1833 Rocket 2.6 00:33:00 10° NNW 00:38:38 74° WSW 00:39:00 70° SW
Cosmos 1000 Rocket 4.4 00:32:22 10° N 00:38:38 77° E 00:39:32 65° SE
Gbstr 26 Del rocket 4.4 00:34:52 10° NW 00:39:08 33° NNE 00:40:15 28° NE
Cosmos 1812 3.9 00:37:09 10° NNW 00:40:03 39° NW 00:40:03 39° NW
Meteor 2-4 Rocket 4.3 00:37:27 10° N 00:42:35 42° ENE 00:42:48 42° E
Cosmos 1536 4.3 00:51:04 31° NE 00:51:04 31° NE 00:53:24 10° NNE
Cosmos 2082 Rocket 2.7 00:45:47 10° NW 00:51:11 45° WSW 00:51:28 45° WSW
Cosmos 1400 Rocket 4.1 00:56:13 37° NNE 00:56:13 37° NNE 00:58:51 10° NNE
Cosmos 1633 4.5 01:03:42 28° NNE 01:03:42 28° NNE 01:05:34 10° NNE
MOS 1-B Rocket 4.3 01:08:11 49° E 01:09:04 53° ENE 01:15:24 10° N
Meteor 2-15 Rocket 4.4 01:03:21 10° N 01:09:29 67° E 01:09:55 65° ESE
CZ-4B R/B 4.0 01:12:27 19° N 01:12:27 19° N 01:13:29 10° N
Meteor 1-19 Rocket 4.2 01:07:29 10° NNW 01:13:21 76° W 01:13:32 75° WSW
Cosmos 2285 Rocket 4.1 01:13:36 60° ESE 01:13:38 60° ESE 01:19:53 10° NNE
Meteor 2-14 Rocket 4.2 01:14:12 80° S 01:14:35 88° E 01:20:45 10° N
Meteor 1-23 Rocket 4.1 01:11:21 10° N 01:16:53 80° ENE 01:16:53 80° ENE
Cosmos 1821 Rocket 4.0 01:16:09 62° SW 01:17:00 70° W 01:23:16 10° N
Cosmos 1605 Rocket 3.9 01:16:56 69° ESE 01:17:22 71° E 01:23:45 10° NNE
Meteor 2-15 4.2 01:12:23 10° N 01:18:33 89° W 01:18:53 81° S
H-2A R/B 4.5 01:17:21 11° WSW 01:18:39 12° W 01:20:28 10° WNW
USA 229 DEB 4.2 01:16:08 10° NW 01:22:50 46° WSW 01:23:13 45° SW
USA 229 4.2 01:16:14 10° NW 01:22:57 46° WSW 01:23:20 46° SW
Iridium 4 Rocket 4.2 01:23:21 10° NNW 01:28:57 50° W 01:29:22 49° W
Cosmos 1892 Rocket 4.4 01:25:01 10° N 01:28:11 48° NNW 01:28:11 48° NNW
Cosmos 2123 Rocket 3.9 01:25:56 10° N 01:32:12 75° W 01:32:36 72° SW
Cosmos 1354 Rocket 4.1 01:27:50 10° NNW 01:32:38 74° NNW 01:32:38 74° NNW
Landsat 5 4.4 01:35:26 49° NNW 01:35:26 49° NNW 01:38:37 10° NNW
SeaSat 1 4.3 01:33:33 20° E 01:35:11 24° NE 01:39:05 10° N
Cosmos 1934 Rocket 4.2 01:36:52 54° WSW 01:37:27 57° W 01:43:26 10° N
NOSS 3-1 (A) 4.0 01:34:01 10° NNW 01:41:37 80° NE 01:44:02 51° SE
Cosmos 2369 Rocket 2.2 01:43:16 74° ENE 01:43:16 74° ENE 01:48:30 10° NNE
ALOS 2 3.9 01:44:55 34° NW 01:44:55 34° NW 01:47:51 10° NNW
Helios 1A Rocket 4.2 01:40:50 10° NNE 01:43:33 40° NNE 01:43:33 40° NNE
H-2A R/B 3.5 01:42:47 10° N 01:46:31 47° NW 01:46:31 47° NW
ISS -0.3 01:48:32 16° NNE 01:48:32 16° NNE 01:49:43 10° NNE
Meteor 1-12 Rocket 4.5 01:48:04 57° E 01:48:04 57° E 01:53:19 10° NNE
Cosmos 1315 Rocket 4.5 01:54:29 30° NNW 01:54:29 30° NNW 01:56:52 10° N
Cosmos 1626 Rocket 4.4 01:53:07 10° N 01:56:30 49° NNE 01:56:30 49° NNE
Meteor 1-5 Rocket 4.2 01:57:58 66° WNW 01:57:58 66° WNW 02:03:06 10° N
Cosmos 1455 Rocket 4.1 02:01:01 42° NNW 02:01:01 42° NNW 02:04:12 10° N
Lacrosse 5 rocket 3.3 02:02:22 23° NNE 02:02:22 23° NNE 02:03:53 10° NE
ATLAS 2AS CENTAUR R/B 3.7 01:55:12 10° NNW 02:03:05 50° NE 02:08:36 19° ESE
Lacrosse 5 2.1 02:06:21 65° NNE 02:06:21 65° NNE 02:10:48 10° NE
CZ-2C R/B 2.6 02:01:59 10° NNE 02:06:52 77° NNW 02:06:52 77° NNW
Cosmos 1992 Rocket 4.1 02:10:48 73° N 02:10:48 73° N 02:15:31 10° NNE
NOSS 3-1 (C) 4.1 02:06:31 10° NW 02:14:00 58° WSW 02:14:48 56° SW
CZ-2C R/B 3.1 02:19:48 72° NNW 02:19:48 72° NNW 02:24:17 10° NNW
GP-B 4.1 02:23:57 10° N 02:27:14 42° NW 02:27:14 42° NW
Cosmos 1656 Rocket 4.4 02:33:31 40° ESE 02:33:31 40° ESE 02:38:40 10° NE
Cosmos 1943 Rocket 2.0 02:34:07 84° ENE 02:34:07 84° ENE 02:39:38 10° NNE
Cosmos 2100 Rocket 4.1 02:37:13 61° WSW 02:37:52 65° W 02:44:15 10° N
Cosmos 1975 4.3 02:40:45 32° NW 02:40:45 32° NW 02:43:21 10° N
Cosmos 2061 Rocket 4.0 02:40:23 62° WSW 02:41:07 67° W 02:47:32 10° N
Cosmos 44 Rocket 4.1 02:41:10 10° NNW 02:46:09 49° NE 02:47:24 40° E
Cosmos 2058 Rocket 4.2 02:47:43 38° ENE 02:47:43 38° ENE 02:51:23 10° NNE
SL-8 R/B 4.4 02:44:31 10° WNW 02:49:14 53° NNE 02:53:55 10° E
Meteor 1-21 4.4 02:44:29 10° N 02:50:04 65° ENE 02:50:49 58° ESE
Cosmos 1802 Rocket 4.2 02:58:40 51° WSW 02:59:24 54° WNW 03:05:32 10° N
Cosmos 2233 Rocket 4.4 02:59:20 44° SE 03:00:43 53° E 03:06:40 10° NNE
Cosmos 1953 Rocket 3.9 02:56:38 10° N 03:00:15 60° N 03:00:15 60° N
Cosmos 1833 4.3 02:55:57 10° NNW 03:01:04 58° W 03:01:04 58° W
Cosmos 2016 Rocket 4.0 03:01:30 57° WSW 03:02:12 61° W 03:08:16 10° N
Cosmos 1241 Rocket 4.4 02:57:15 10° NNW 03:03:46 87° WSW 03:05:27 54° SSE
Cosmos 2098 Rocket 4.0 03:05:21 61° S 03:06:40 90° S 03:14:04 10° N
ERS-2 4.4 03:06:14 10° NE 03:08:37 18° E 03:08:37 18° E
SeaSat 1 3.0 03:13:21 45° WNW 03:13:21 45° WNW 03:17:13 10° NW
Cosmos 1818 4.1 03:12:07 45° W 03:13:01 50° NW 03:18:21 10° NNE
Cosmos 1726 Rocket 3.8 03:13:41 65° NNW 03:13:41 65° NNW 03:17:27 10° N
SL-08 R/B 4.0 03:12:33 41° ESE 03:13:35 48° ENE 03:18:05 10° N
Cosmos 1825 Rocket 4.4 03:09:40 10° NNW 03:13:04 43° NW 03:13:04 43° NW
Cosmos 1743 4.0 03:18:58 34° NW 03:18:58 34° NW 03:21:36 10° N
BREEZE-M DEB (TANK) 3.6 03:05:30 10° WNW 03:18:39 73° NNE 03:22:11 10° ESE
Cosmos 1842 3.7 03:19:33 10° N 03:22:49 59° N 03:22:49 59° N
Cosmos 968 Rocket 4.1 03:19:31 10° NNW 03:23:51 43° W 03:23:51 43° W
ISS -0.1 03:22:39 10° NNW 03:24:34 15° N 03:26:29 10° NE
Cosmos 1758 Rocket 3.9 03:21:02 10° NNW 03:24:58 58° WNW 03:24:58 58° WNW
Cosmos 2369 Rocket 4.2 03:25:02 14° W 03:27:33 18° NW 03:31:17 10° N
Geosat 4.0 03:22:40 10° NNE 03:27:41 65° ESE 03:28:15 60° SSE
Meteor 2-9 Rocket 4.2 03:28:59 58° S 03:30:14 86° E 03:36:07 10° N
Cosmos 2219 3.1 03:25:38 10° NNW 03:31:14 67° WSW 03:31:46 63° SW
NOSS 3-3 (A) 3.9 03:31:06 54° SSW 03:32:40 86° ESE 03:39:24 10° NE
NOSS 3-3 (C) 3.9 03:31:12 54° SSW 03:32:46 85° SE 03:39:31 10° NE
ARIANE 5 R/B 4.2 03:28:47 10° NE 03:33:03 26° E 03:35:16 19° SE
Cosmos 1725 Rocket 4.3 03:34:24 45° WSW 03:35:36 51° WNW 03:41:37 10° N
Milstar 3 Cent rocket 4.3 03:39:47 13° SE 03:39:47 13° SE 03:41:39 10° ESE
Cosmos 44 3.7 03:34:07 10° NNW 03:39:19 63° NE 03:42:36 21° SE
Cosmos 1340 3.4 03:35:56 10° NNW 03:38:47 46° NW 03:38:47 46° NW
Tsikada Rocket 4.3 03:33:43 10° NNW 03:39:45 49° W 03:40:51 44° WSW
Cosmos 2227 Rocket 3.4 03:34:25 10° N 03:39:48 41° ENE 03:45:07 10° SE
Lacrosse 5 rocket 3.9 03:38:12 10° NW 03:40:04 13° NNW 03:41:55 10° N
CZ-2D R/B 3.9 03:35:53 10° NE 03:40:16 24° E 03:43:29 15° SE
Cosmos 2208 Rocket 3.8 03:40:15 65° SSW 03:41:04 88° WNW 03:46:20 10° NNE
Meteor 2-17 Rocket 4.4 03:39:52 51° SSW 03:41:30 80° W 03:47:39 10° N
SL-16 R/B 3.7 03:37:13 10° SE 03:42:51 39° ENE 03:48:30 10° N
IRS-1C 4.3 03:38:08 10° NNE 03:43:27 65° E 03:44:57 45° SSE
Lacrosse 5 4.0 03:45:31 10° WNW 03:49:23 22° NNW 03:53:20 10° NNE
Cosmos 2278 4.2 03:51:23 36° SSE 03:53:18 52° ESE 03:58:47 10° NNE
Cosmos 2369 4.4 03:51:18 32° SSE 03:53:21 46° ESE 03:58:44 10° NE
Cosmos 1777 Rocket 4.5 03:48:59 10° NNW 03:53:44 41° W 03:53:44 41° W
ATLAS 2AS CENTAUR R/B 3.3 03:46:35 10° NW 03:54:04 44° WSW 03:55:56 38° SSW
Cosmos 1666 3.8 03:55:17 34° WNW 03:55:17 34° WNW 03:58:16 10° N
CBERS-1 3.9 03:51:35 10° N 03:56:44 78° WNW 03:58:00 52° SSW
USA 161 2.8 03:57:20 38° ENE 03:57:20 38° ENE 03:59:59 10° N
IRS-P3 4.4 03:54:16 10° N 03:59:28 54° WNW 04:00:48 43° WSW
Cosmos 405 Rocket 3.7 03:56:54 10° N 04:00:51 47° ENE 04:02:38 28° SE
Cosmos 2297 Rocket 3.3 03:56:31 10° NNW 04:01:56 44° ENE 04:07:17 10° SE
ATLAS CENTAUR R/B 3.4 04:03:58 20° SSE 04:05:57 26° ESE 04:10:06 10° ENE
IRAS Rocket 4.3 04:04:15 10° N 04:09:49 68° WNW 04:11:52 40° SW
Cosmos 2228 3.9 04:12:56 33° W 04:13:12 33° WNW 04:17:07 10° N
GEOS 3 Rocket 3.5 04:11:07 10° SE 04:16:20 89° NE 04:21:33 10° NW
Cosmos 1943 Rocket 4.2 04:15:38 12° W 04:18:31 16° NW 04:21:59 10° N
Cosmos 220 Rocket 4.4 04:14:37 10° NNW 04:18:58 64° ENE 04:22:31 14° SSE
NPP 4.3 04:14:52 10° N 04:19:56 42° WNW 04:21:45 32° WSW
EO 1 Del DPAF 4.3 04:17:32 15° SE 04:20:28 46° ENE 04:24:12 10° N
SL-24 R/B 4.3 04:24:10 21° SSE 04:27:38 87° WSW 04:32:19 10° NNW
Cosmos 1812 Rocket 3.9 04:29:59 38° SW 04:31:10 49° W 04:35:32 10° N
Cosmos 2150 Rocket 3.9 04:26:12 10° NNW 04:31:29 88° ENE 04:36:39 10° SSE
SL-8 R/B 3.8 04:27:12 10° WNW 04:31:48 47° SW 04:36:22 10° SE
Resurs 1-4 Rocket 2.2 04:28:34 10° NNE 04:33:51 73° ESE 04:37:11 23° S
Cosmos 468 Rocket 4.0 04:32:14 30° SSW 04:34:52 84° ESE 04:40:04 10° NNE
Cosmos 1464 Rocket 4.2 04:35:08 28° SSW 04:38:22 58° W 04:44:37 10° N
Cosmos 1707 2.7 04:36:49 10° NNW 04:40:43 64° W 04:42:16 34° SSW
ERS-2 3.3 04:39:24 10° N 04:42:41 29° WNW 04:43:27 27° W
BREEZE-M DEB (TANK) 3.3 04:43:31 10° WNW 04:45:38 23° W 04:45:38 23° W
ADEOS 4.3 04:45:00 10° N 04:49:50 39° WNW 04:52:23 24° WSW
NOSS 2-1 (D) 3.3 04:49:20 32° SW 04:51:06 82° NW 04:55:33 10° NE
Cosmos 1898 Rocket 3.5 04:45:54 10° NNW 04:51:10 61° WSW 04:56:24 10° S
NOSS 2-1 (C) 3.3 04:50:37 31° SW 04:52:26 82° NW 04:56:53 10° NE
Okean 3 Rocket 3.7 04:50:29 10° NNW 04:54:47 52° W 04:57:18 23° SSW
Meteor 2-5 Rocket 4.2 04:49:42 10° NNW 04:55:15 46° W 04:59:14 19° SSW
Cosmos 1092 Rocket 4.2 04:49:45 10° N 04:56:03 76° E 05:02:21 10° SSE
BREEZE-M DEB 3.6 04:56:38 19° WNW 04:58:12 89° SSW 05:01:18 10° ESE
BREEZE-M DEB (TANK) 3.2 04:56:13 11° WNW 04:58:39 40° N 05:02:27 10° ENE
SME Rocket 4.2 04:55:33 18° SSW 04:59:19 51° W 05:06:44 10° NNW
BREEZE-M DEB (TANK) 3.3 04:55:47 16° WSW 04:59:52 53° NNW 05:02:24 10° NE
ISS -1.2 04:58:53 10° NW 05:01:47 29° NNE 05:04:41 10° E
GPS 2-04 Rocket1 3.9 05:01:21 22° SSW 05:02:23 25° SSE 05:05:32 10° ESE
Cosmos 1656 3.7 05:02:20 19° SSW 05:06:31 82° WNW 05:12:13 10° NNE
NOSS 2-1 (E) 3.6 05:05:12 24° SW 05:07:31 63° NW 05:12:04 10° NNE
ASTRO E2 4.3 05:07:59 18° SSW 05:08:37 19° S 05:11:29 10° SE
Cosmos 1937 Rocket 3.5 05:03:51 10° NNW 05:08:56 59° WSW 05:14:01 10° S
Cosmos 841 Rocket 3.7 05:04:53 14° S 05:09:28 73° ESE 05:14:45 10° NNE
Cosmos 2082 4.1 05:05:03 10° NW 05:10:15 39° WSW 05:15:25 10° S
ARIANE 5 R/B 3.2 05:07:32 10° N 05:12:14 38° WNW 05:15:36 18° SW
PSLV R/B 4.0 05:10:46 10° NNE 05:14:39 68° ESE 05:18:26 10° S
Cosmos 1697 Rocket 2.7 05:10:27 15° SSW 05:15:12 88° ESE 05:20:55 10° NNE
NOSS 3-4 (A) 3.8 05:09:56 10° NW 05:16:56 79° WSW 05:24:20 10° SSE
NOSS 3-4 (C) 3.8 05:10:01 10° NW 05:17:04 79° WSW 05:24:30 10° SSE
Cosmos 1763 Rocket 3.5 05:14:36 14° SSW 05:19:06 82° WNW 05:24:21 10° NNE
In-Cosmos 22 4.2 05:14:50 10° N 05:20:09 79° E 05:25:26 10° SSE
CZ-2D R/B 2.7 05:15:20 10° N 05:20:31 45° WNW 05:24:49 15° SW
Cosmos 1980 Rocket 2.6 05:16:18 10° S 05:21:48 61° ESE 05:27:23 10° NNE
Thor Agena Rocket 4.0 05:17:22 10° SSE 05:22:21 64° ENE 05:27:21 10° N
MTI 4.3 05:20:08 15° SSW 05:22:36 40° W 05:25:44 10° NNW
Cosmos 2227 Rocket 3.0 05:18:50 10° NW 05:23:39 29° WSW 05:28:25 10° SSW
SL-16 R/B 3.2 05:21:04 10° SSW 05:26:29 34° W 05:32:02 10° NNW
CZ-2D R/B 3.7 05:23:09 10° N 05:27:23 58° WNW 05:31:25 11° SSW
Cosmos 2322 Rocket 4.0 05:26:29 10° SSE 05:31:10 28° ESE 05:35:52 10° NE
Cosmos 1766 4.1 05:29:22 15° SW 05:32:12 34° WNW 05:35:51 10° N
Cosmos 1674 4.3 05:29:37 10° N 05:33:10 36° ENE 05:36:40 10° SSE
Okean O Rocket 1.6 05:28:58 10° N 05:33:21 74° WNW 05:37:44 10° SSW
Lacrosse 5 4.5 05:31:25 10° NNW 05:34:05 14° N 05:36:46 10° NNE
CZ-3 Stage 3 4.4 04:54:31 10° W 05:34:12 50° SSW 05:40:59 10° SE
Cosmos 1758 3.3 05:32:39 10° SSW 05:36:40 69° W 05:40:42 10° N
Cosmos 1437 2.8 05:37:03 10° N 05:40:25 85° E 05:43:44 10° S
Cosmos 2279 Rocket 4.3 05:34:29 10° S 05:40:42 73° E 05:46:58 10° NNE
Cosmos 1500 Rocket 3.9 05:36:26 10° N 05:40:51 69° E 05:45:11 10° SSE
BREEZE-M DEB (TANK) 2.9 05:36:46 12° WSW 05:41:16 83° NNW 05:45:39 10° NE
UNKNOWN OBJECT B 4.0 05:38:20 10° NNW 05:41:41 27° WNW 05:44:49 11° SW
Cosmos 1544 3.3 05:38:10 10° S 05:41:49 72° E 05:45:29 10° NNE
Cosmos 1655 Rocket 4.1 05:36:42 10° N 05:43:09 90° SSW 05:49:33 10° S
Cosmos 1953 2.5 05:40:18 10° SSW 05:44:14 53° W 05:48:13 10° N
Cosmos 1743 Rocket 3.5 05:40:10 10° NNW 05:44:30 73° W 05:48:49 10° S
ATLAS CENTAUR R/B 2.5 05:40:19 11° WSW 05:44:53 45° NW 05:49:41 10° NNE
Cosmos 2297 Rocket 3.1 05:41:03 10° NW 05:45:42 27° WSW 05:50:20 10° SSW
IRS-1C Rocket 4.3 05:40:49 10° N 05:45:58 57° WNW 05:51:06 10° SSW
ADEOS II 3.2 05:45:21 10° NNE 05:50:24 45° E 05:55:25 10° S
Cosmos 2360 4.4 05:46:22 10° SSW 05:52:02 75° ESE 05:57:45 10° NNE
USA 81 4.1 05:48:34 10° SSW 05:53:49 71° W 05:59:07 10° N
Cosmos 540 Rocket 3.7 05:52:53 10° SSW 05:58:02 76° ESE 06:03:14 10° NNE
PAYLOAD B 4.5 05:55:07 10° N 06:00:37 57° WNW 06:06:04 10° SSW
SL-16 R/B 3.2 05:56:01 10° S 06:01:25 47° ESE 06:06:50 10° NE
